Vorticity
10 6 3 2 4 5 5 8 10 9 9 8 8 7 6 7 7 7 8 8 9 9
8 3 3 5 4 5 9 12 10 9 9 9 8 8 9 9 9 10 10 11 11 10
3 4 3 4 6 11 13 11 10 9 7 5 3 4 6 8 10 10 10 10 10 9
4 5 6 9 13 14 13 11 8 4 4 6 9 10 11 12 12 10 10 11 11 10
2 9 13 16 16 13 8 4 3 5 8 10 11 12 13 12 10 9 8 8 7 7
15 18 16 12 8 4 2 4 7 10 11 15 15 13 11 8 7 8 8 8 7 7
15 8 7 5 3 2 5 6 7 14 15 11 9 9 9 9 9 9 8 7 8 10
6 6 6 4 4 6 7 9 15 13 8 9 11 10 10 9 9 9 8 10 12 12
7 3 2 7 10 9 13 16 8 7 13 11 10 10 9 10 9 8 8 7 8 10
7 8 8 8 11 11 6 5 14 13 9 11 10 9 10 10 9 4 4 6 10 13
10 10 8 8 8 12 15 12 10 11 10 10 10 10 11 10 6 4 5 11 14 15
12 15 16 16 16 14 14 12 10 10 10 11 12 12 12 9 6 6 5 11 12 16
14 13 13 13 12 10 10 10 11 11 11 12 12 12 10 9 8 5 6 6 8 5
13 11 9 9 9 10 11 10 9 9 8 10 11 12 11 9 9 7 8 8 6 7
Height
3121 3120 3119 3118 3116 3113 3111 3108 3105 3102 3100 3099 3096 3094 3092 3090 3087 3085 3082 3079 3076 3073
3116 3115 3114 3111 3109 3106 3104 3101 3099 3096 3094 3092 3090 3088 3085 3083 3081 3078 3075 3072 3069 3066
3110 3108 3106 3104 3102 3099 3097 3095 3093 3091 3089 3086 3084 3081 3078 3075 3072 3070 3067 3065 3063 3060
3103 3102 3099 3097 3094 3092 3091 3089 3087 3085 3082 3079 3076 3073 3070 3067 3064 3062 3060 3058 3055 3053
3097 3094 3091 3089 3087 3086 3084 3082 3080 3078 3075 3071 3068 3064 3062 3059 3057 3055 3053 3050 3047 3045
3089 3086 3084 3083 3081 3079 3077 3075 3072 3070 3066 3063 3060 3057 3054 3052 3050 3048 3046 3043 3040 3038
3082 3080 3078 3076 3074 3072 3070 3067 3064 3061 3058 3055 3052 3049 3047 3044 3042 3040 3037 3035 3032 3029
3075 3073 3071 3069 3067 3064 3061 3058 3055 3053 3050 3047 3045 3042 3040 3037 3035 3033 3030 3027 3023 3020
3068 3066 3064 3061 3058 3055 3052 3049 3047 3045 3042 3040 3037 3035 3032 3029 3027 3025 3021 3019 3015 3011
3061 3058 3054 3052 3049 3046 3044 3041 3039 3036 3034 3031 3029 3026 3023 3021 3019 3017 3014 3010 3005 3002
3050 3048 3045 3043 3040 3038 3035 3032 3030 3028 3025 3023 3020 3017 3015 3013 3011 3009 3006 3001 2996 2992
3043 3040 3037 3034 3031 3029 3027 3024 3022 3019 3016 3014 3012 3009 3006 3003 3002 3000 2996 2992 2988 2984
3034 3031 3029 3026 3023 3020 3018 3016 3013 3011 3008 3005 3003 3001 2998 2994 2991 2990 2987 2985 2981 2977
3026 3024 3021 3018 3016 3012 3010 3008 3005 3002 3000 2997 2993 2991 2988 2985 2982 2980 2979 2976 2973 2971